EW8494 Weather Reports


Display with metric or nautical units.
time (UTC)temp
F
wind
direction
speed
MPH
gust
MPH
rain 1hr
in
rain 24hr
in
rain mn
in
humidity
%
barometer
mb
20260905101520 56 0.0 1.0 0.00 0.00 0.00 60 1015.0
20260905100520 57 0 3.0 5.0 0.00 0.00 0.00 59 1014.9
20260905095519 57 0 4.0 7.0 0.00 0.00 0.00 58 1014.9
20260905094521 57 0 4.0 7.0 0.00 0.00 0.00 59 1014.9
20260905093520 57 0 4.0 6.0 0.00 0.00 0.00 59 1015.0
20260905092600 57 0 2.0 3.0 0.00 0.00 0.00 57 1015.0
20260905091520 57 0 1.0 4.0 0.00 0.00 0.00 57 1015.0
20260905090519 56 0.0 0.0 0.00 0.00 0.00 58 1014.9
20260905085520 56 0.0 0.0 0.00 0.00 0.00 59 1014.8
20260905084519 57 0.0 1.0 0.00 0.00 0.00 58 1014.8
20260905083520 57 338 3.0 5.0 0.00 0.00 0.00 57 1014.7
20260905082520 57 0 3.0 5.0 0.00 0.00 0.00 57 1014.4
20260905081519 57 0 3.0 5.0 0.00 0.00 0.00 57 1014.4
20260905080519 57 0 4.0 6.0 0.00 0.00 0.00 58 1014.3
20260905075519 57 0 5.0 8.0 0.00 0.00 0.00 57 1014.3
20260905074519 57 0 5.0 8.0 0.00 0.00 0.00 58 1014.3
20260905073520 57 0 4.0 9.0 0.00 0.00 0.00 58 1014.2
20260905072520 56 0 4.0 7.0 0.00 0.00 0.00 59 1014.0
20260905071519 57 0 4.0 5.0 0.00 0.00 0.00 58 1014.0
20260905070520 57 0 3.0 5.0 0.00 0.00 0.00 57 1014.0
20260905065600 57 0 3.0 4.0 0.00 0.00 0.00 57 1013.9
20260905064519 57 0 4.0 7.0 0.00 0.00 0.00 57 1013.9
20260905063519 57 0 5.0 8.0 0.00 0.00 0.00 55 1013.7
20260905062520 57 0 4.0 8.0 0.00 0.00 0.00 55 1013.8
20260905061519 56 0 5.0 8.0 0.00 0.00 0.00 57 1013.7
20260905060539 56 338 3.0 5.0 0.00 0.00 0.00 57 1013.7
20260905055519 57 0 3.0 4.0 0.00 0.00 0.00 56 1013.7
20260905054519 58 338 3.0 5.0 0.00 0.00 0.00 55 1013.5
20260905053519 59 315 2.0 4.0 0.00 0.00 0.00 52 1013.4
20260905052519 60 315 1.0 3.0 0.00 0.00 0.00 48 1013.6
20260905051519 59 0.0 3.0 0.00 0.00 0.00 50 1013.4
20260905050520 59 0.0 2.0 0.00 0.00 0.00 49 1013.3
20260905045519 59 0.0 0.0 0.00 0.00 0.00 51 1013.2
20260905044519 59 0.0 2.0 0.00 0.00 0.00 54 1013.2
20260905043519 60 248 1.0 3.0 0.00 0.00 0.00 54 1013.3
20260905042519 59 0.0 2.0 0.00 0.00 0.00 56 1013.2
20260905041519 60 23 2.0 4.0 0.00 0.00 0.00 57 1013.2
20260905040519 60 0 3.0 5.0 0.00 0.00 0.00 57 1013.2
20260905035519 59 0 5.0 8.0 0.00 0.00 0.00 58 1013.0
20260905034519 60 23 3.0 4.0 0.00 0.00 0.00 58 1012.8
20260905033519 60 23 2.0 4.0 0.00 0.00 0.00 58 1012.9
20260905032519 59 23 3.0 5.0 0.00 0.00 0.00 58 1012.8
20260905031519 60 45 3.0 4.0 0.00 0.00 0.00 58 1012.7
20260905030519 61 23 3.0 4.0 0.00 0.00 0.00 56 1012.7
20260905025539 63 23 2.0 3.0 0.00 0.00 0.00 54 1012.6
20260905024519 63 23 2.0 3.0 0.00 0.00 0.00 49 1012.6
20260905023520 64 0.0 2.0 0.00 0.00 0.00 50 1012.6
20260905022519 65 23 2.0 3.0 0.00 0.00 0.00 50 1012.6
20260905021539 66 0.0 0.0 0.00 0.00 0.00 48 1012.4
20260905020519 67 0.0 1.0 0.00 0.00 0.00 47 1012.6
20260905015519 68 0.0 0.0 0.00 0.00 0.00 42 1012.5
20260905014519 70 0.0 0.0 0.00 0.00 0.00 43 1012.4
20260905013519 71 0.0 1.0 0.00 0.00 0.00 43 1012.5
20260905012519 72 0.0 1.0 0.00 0.00 0.00 37 1012.4
20260905011519 74 0.0 0.0 0.00 0.00 0.00 34 1012.5
20260905010519 74 0.0 2.0 0.00 0.00 0.00 27 1012.4
20260905005519 74 90 1.0 4.0 0.00 0.00 0.00 25 1012.3
20260905004519 73 90 2.0 6.0 0.00 0.00 0.00 27 1012.3
20260905003519 73 90 4.0 6.0 0.00 0.00 0.00 27 1012.1
20260905002538 73 90 2.0 6.0 0.00 0.00 0.00 28 1012.2
20260905001518 73 90 3.0 8.0 0.00 0.00 0.00 29 1012.3
20260905000518 73 90 4.0 7.0 0.00 0.00 0.00 28 1012.3
20260904235539 72 90 2.0 8.0 0.00 0.00 0.00 29 1012.2
20260904234519 72 113 2.0 4.0 0.00 0.00 0.00 32 1012.3
20260904233518 72 90 3.0 6.0 0.00 0.00 0.00 32 1012.3
20260904232518 72 90 4.0 8.0 0.00 0.00 0.00 31 1012.4
20260904231519 72 135 2.0 6.0 0.00 0.00 0.00 35 1012.4
20260904230519 73 113 3.0 8.0 0.00 0.00 0.00 30 1012.5
20260904225518 73 90 3.0 8.0 0.00 0.00 0.00 28 1012.5
20260904224518 73 113 1.0 9.0 0.00 0.00 0.00 29 1012.5
20260904223538 73 113 2.0 7.0 0.00 0.00 0.00 27 1012.5
20260904222519 73 113 2.0 7.0 0.00 0.00 0.00 33 1012.4
20260904221519 73 90 4.0 9.0 0.00 0.00 0.00 31 1012.5
20260904220519 72 90 3.0 11.0 0.00 0.00 0.00 32 1012.5
20260904215539 71 90 3.0 8.0 0.00 0.00 0.00 36 1012.6
20260904214541 71 135 2.0 4.0 0.00 0.00 0.00 33 1012.7
20260904213519 72 90 4.0 9.0 0.00 0.00 0.00 35 1012.6
20260904212519 72 90 4.0 10.0 0.00 0.00 0.00 32 1012.5
20260904211518 71 90 1.0 7.0 0.00 0.00 0.00 36 1012.6
20260904210518 71 90 5.0 9.0 0.00 0.00 0.00 34 1012.5
20260904205518 71 90 3.0 9.0 0.00 0.00 0.00 36 1012.6
20260904204520 71 135 2.0 5.0 0.00 0.00 0.00 35 1012.6
20260904203518 70 135 1.0 3.0 0.00 0.00 0.00 35 1012.5
20260904202518 70 90 3.0 8.0 0.00 0.00 0.00 35 1012.6
20260904201518 70 90 3.0 8.0 0.00 0.00 0.00 36 1012.7
20260904200519 70 90 1.0 8.0 0.00 0.00 0.00 41 1012.8
20260904195520 69 90 2.0 7.0 0.00 0.00 0.00 40 1012.8
20260904194538 69 90 2.0 7.0 0.00 0.00 0.00 41 1012.8
20260904193518 68 90 2.0 6.0 0.00 0.00 0.00 41 1012.8
20260904192520 68 158 1.0 4.0 0.00 0.00 0.00 41 1012.9
20260904191520 67 158 2.0 6.0 0.00 0.00 0.00 41 1013.0
20260904190520 66 158 2.0 7.0 0.00 0.00 0.00 44 1013.1
20260904185519 66 135 3.0 6.0 0.00 0.00 0.00 44 1013.1
20260904184521 65 180 1.0 2.0 0.00 0.00 0.00 44 1013.2
20260904183521 66 135 2.0 4.0 0.00 0.00 0.00 45 1013.2
20260904182520 66 113 1.0 4.0 0.00 0.00 0.00 45 1013.2
20260904181520 65 113 1.0 5.0 0.00 0.00 0.00 46 1013.0
20260904180520 64 90 1.0 6.0 0.00 0.00 0.00 48 1013.0
20260904175540 63 180 1.0 4.0 0.00 0.00 0.00 48 1012.8
20260904174520 62 0.0 3.0 0.00 0.00 0.00 52 1012.8
20260904173520 62 203 1.0 3.0 0.00 0.00 0.00 52 1012.9
20260904172520 61 225 2.0 5.0 0.00 0.00 0.00 54 1012.8
20260904171520 60 225 1.0 3.0 0.00 0.00 0.00 57 1012.7
20260904170521 60 225 3.0 6.0 0.00 0.00 0.00 56 1012.7
20260904165520 60 158 1.0 3.0 0.00 0.00 0.00 55 1012.6
20260904164540 59 248 1.0 3.0 0.00 0.00 0.00 57 1012.7
20260904163520 59 90 1.0 3.0 0.00 0.00 0.00 59 1012.5
20260904162540 58 90 1.0 4.0 0.00 0.01 0.00 58 1012.5
20260904161540 58 0.0 4.0 0.00 0.01 0.00 58 1012.5
20260904160540 57 0.0 0.0 0.00 0.01 0.00 58 1012.5
20260904155520 55 0.0 0.0 0.00 0.01 0.00 59 1012.5
20260904154540 54 0.0 0.0 0.00 0.01 0.00 59 1012.4
20260904153539 54 0.0 0.0 0.00 0.01 0.00 60 1012.5
20260904152520 54 0.0 0.0 0.00 0.01 0.00 60 1012.3
20260904151520 53 0.0 0.0 0.00 0.01 0.00 60 1012.2
20260904150519 53 0.0 0.0 0.00 0.01 0.00 60 1012.0
20260904145540 53 0.0 0.0 0.00 0.01 0.00 61 1012.0
20260904144520 52 0.0 0.0 0.00 0.01 0.00 61 1012.0
20260904143518 52 0.0 0.0 0.00 0.01 0.00 63 1011.7
20260904142519 50 0.0 0.0 0.00 0.01 0.00 66 1011.4
20260904141520 49 0.0 0.0 0.00 0.01 0.00 66 1011.2
20260904140519 49 0.0 0.0 0.00 0.01 0.00 66 1011.1
20260904135520 49 0.0 0.0 0.00 0.01 0.00 66 1010.9
20260904134540 48 0.0 0.0 0.00 0.01 0.00 66 1010.9
20260904133520 48 0.0 0.0 0.00 0.01 0.00 66 1010.8
20260904132519 48 0.0 0.0 0.00 0.01 0.00 66 1010.6
20260904131519 48 0.0 0.0 0.00 0.01 0.00 66 1010.5
20260904130539 48 0.0 0.0 0.00 0.01 0.00 66 1010.6
20260904125559 47 0.0 0.0 0.00 0.01 0.00 66 1010.4
20260904124520 48 0.0 0.0 0.00 0.01 0.00 66 1010.4
20260904123520 48 0.0 0.0 0.00 0.01 0.00 66 1010.4
20260904122519 48 0.0 0.0 0.00 0.01 0.00 66 1010.2
20260904121519 48 0.0 0.0 0.00 0.01 0.00 66 1010.1
20260904120520 48 0.0 0.0 0.00 0.01 0.00 67 1010.2
20260904115520 48 0.0 0.0 0.00 0.01 0.00 66 1010.2
20260904114519 48 0.0 0.0 0.00 0.01 0.00 66 1010.1
20260904113519 48 0.0 0.0 0.00 0.01 0.00 66 1010.1
20260904112519 49 0.0 0.0 0.00 0.01 0.00 66 1010.0
20260904111519 49 0.0 0.0 0.00 0.01 0.00 66 1009.8
20260904110520 49 0.0 0.0 0.00 0.01 0.00 67 1009.7
20260904105539 49 0.0 0.0 0.00 0.01 0.00 67 1009.6
20260904104519 49 0.0 0.0 0.00 0.01 0.00 67 1009.4
20260904103519 49 0.0 1.0 0.00 0.01 0.00 67 1009.5
20260904102519 49 0.0 0.0 0.00 0.01 0.00 67 1009.5